Regional Weather Roundup
Issued by NWS Upton, NY

Current Version | Previous Version | Graphics & Text | Print | Product List | Glossary Off
Versions: 1 2 3 4 5 6 7 8 9 10 11 12 13 14 15 16 17 18 19 20 21 22 23 24 25 26 27 28 29 30 31 32 33 34 35 36 37 38 39 40 41 42 43 44 45 46 47 48 49 50

000
ASUS41 KOKX 250508
RWROKX

REGIONAL WEATHER ROUNDUP
NATIONAL WEATHER SERVICE NEW YORK NY
100 AM EDT MON MAY 25 2015

NOTE: "FAIR" INDICATES FEW OR NO CLOUDS BELOW 12,000 FEET WITH NO
SIGNIFICANT WEATHER AND/OR OBSTRUCTIONS TO VISIBILITY.

NYZ071-072-176-178-NJZ106-104-250600-
NEW YORK CITY METRO AREA


CITY           SKY/WX    TMP DP  RH WIND       PRES   REMARKS
CENTRAL PARK   CLOUDY    68  50  52 W7        30.28S
LAGUARDIA APRT CLOUDY    68  49  50 S10       30.25S
KENNEDY INTL   CLOUDY    60  53  77 S7        30.28S
NEWARK/LIBERTY CLOUDY    65  50  58 S6        30.26S
BRNX BOT. GARD   N/A     66  50  55 SE2       30.26S
TETERBORO      CLOUDY    67  50  54 S6        30.24S
$$

NYZ177-179-078>081-250600-
LONG ISLAND NEW YORK

CITY           SKY/WX    TMP DP  RH WIND       PRES   REMARKS
FARMINGDALE    CLOUDY    60  53  77 SW8       30.28S
ISLIP          CLOUDY    60  52  74 SW12      30.26S
SHIRLEY        CLOUDY    60  51  72 SW9       30.28F
WESTHAMPTON    CLOUDY    59  52  77 SW13G18   30.29F
MONTAUK POINT    N/A     60  50  69 SW10G18   30.28F
$$

NYZ052-065-067-250600-
HUDSON VALLEY

CITY           SKY/WX    TMP DP  RH WIND       PRES   REMARKS
WHITE PLAINS   CLOUDY    60  52  74 S3        30.25S
NEWBURGH       CLEAR     66  45  45 CALM      30.25S
MONTGOMERY     CLOUDY    56  52  86 CALM      30.23S
POUGHKEEPSIE   CLOUDY    57  51  80 CALM      30.23R
ALBANY         MOCLDY    64  42  44 S9        30.20S
$$

NJZ001-105-106-008-010-013-015-019>022-104-250600-
NEW JERSEY

CITY           SKY/WX    TMP DP  RH WIND       PRES   REMARKS
NEWARK/LIBERTY CLOUDY    65  50  58 S6        30.26S
TETERBORO      CLOUDY    67  50  54 S6        30.24S
CALDWELL       CLOUDY    67  49  52 VRB3      30.26R
MORRISTOWN     MOCLDY    66  50  55 S3        30.26S
SOMERVILLE     MOCLDY    59  50  72 CALM      30.25S
SUSSEX         CLOUDY    57  49  74 CALM      30.27S
ANDOVER          N/A     59  52  77 CALM      30.26S
TRENTON        PTCLDY    61  51  70 S6        30.27S
MILLVILLE      CLOUDY    64  55  72 VRB3      30.28F
ATLANTIC CITY  PTCLDY    62  54  74 S7        30.29F
WRIGHTSTOWN    PTCLDY    58  52  80 SW7       30.25F
TOMS RIVER     PTCLDY   N/A N/A N/A S6        30.28F
BELMAR         PTCLDY    61  48  63 SW7       30.28S
$$

PAZ047>061-062-071-250600-
EASTERN PENNSYLVANIA

CITY           SKY/WX    TMP DP  RH WIND       PRES   REMARKS
PHILADELPHIA   CLOUDY    66  56  70 S7        30.28F
ALLENTOWN      MOCLDY    64  46  52 CALM      30.25S
SCRANTON       CLOUDY    66  44  45 S3        30.24S
$$

CTZ002-004>006-009-010-012-RIZ004-006-007-MAZ004-011-015-250600-
SOUTHERN NEW ENGLAND
 IN CT

CITY           SKY/WX    TMP DP  RH WIND       PRES   REMARKS
BRADLEY INTL   CLOUDY    60  50  69 S6        30.23F
HARTFORD       CLOUDY    58  49  72 S3        30.25S
DANBURY        CLOUDY    59  50  72 CALM      30.27S
WTRBRY/OXFORD  CLOUDY    59  48  67 SW3       30.28F
BRIDGEPORT     CLOUDY    59  53  80 CALM      30.26S
MERIDEN        CLOUDY    56  49  77 CALM      30.26S
NEW HAVEN      CLOUDY    60  51  72 VRB5      30.26F
CHESTER        FAIR      57  50  77 SW7       30.27F
GROTON         MOCLDY    57  49  74 W6        30.26F
WILLIMANTIC    MOCLDY    57  49  74 CALM      30.26F

 IN RI

CITY           SKY/WX    TMP DP  RH WIND       PRES   REMARKS
PROVIDENCE     MOCLDY    60  47  61 SW7       30.25F
BLOCK ISLAND   MOCLDY    54  48  82 W14       30.28F
WESTERLY       MOCLDY    57  49  74 SW3       30.27

 IN MA

CITY           SKY/WX    TMP DP  RH WIND       PRES   REMARKS
BOSTON         CLOUDY    65  49  56 SW13      30.22S
WORCESTER      MOCLDY    60  47  61 W14       30.24F
WESTFIELD      MOCLDY    58  49  72 S5        30.23
PROVINCETOWN   CLOUDY    55  48  76 SW13      30.24S
NANTUCKET      MOCLDY    55  52  89 SW14      30.29F
$$

ANZ330-335-338-340-345-350-353-355-250600-
COASTAL MARINE OBSERVATIONS


STATION/POSITION TIME  SKY/WX   TEMP    WIND        PRES    VSBY  WAVE
                                AIR SEA DIR/SP/G                  HT/PER
                 (UTC)          (F)     (DEG/KT/KT) (MB)    (MI)  (FT/S)
NY HARB ENTRANCE 0450            58 56  210/ 14/ 16 1024.5          3/ 5
4S FIRE IS       0403               54                N/A           4/ 5
20S FIRE ISLAND  0450            58 55  210/ 16/ 17 1025.0          3/ 5
GREAT SOUTH BAY  0400            61 63  260/ 12/ 14   N/A
23SW MTP         0450            56 53  240/ 10/ 12 1025.3          3/ 5
HUDSON CANYON    NOT AVBL
KINGS POINT      0400            64 59  180/  5/ 10 1024.1
CENTRAL LI SOUND NOT AVBL
EASTERN LI SOUND 0400            54     250/  4/  4   N/A
ROBBINS REEF     0400            65     170/  9/ 10 1023.6
$$


>>>>>>>>>>>>>>>>>>>>>>>>>>>> KEY <<<<<<<<<<<<<<<<<<<<<<<<<<<
>                                                          <
>     SKY/WX - SKY CONDITION/PRESENT WEATHER               <
>     TMP    - TEMPERATURE IN FAHRENHEIT                   <
>     DP     - DEWPOINT IN FAHRENHEIT                      <
>     RH     - RELATIVE HUMIDITY IN PERCENT                <
>     WIND   - DIRECTION AND SPEED IN MPH                  <
>     PRES   - MEAN SEA LEVEL PRESSURE IN INCHES OF HG     <
>     WCI    - WIND CHILL INDEX                            <
>     VSB    - VISIBILITY IN MILES                         <
>     HX     - HEAT INDEX                                  <
>     TC     - TEMPERATURE IN CELSIUS                      <
>     VRB    - VARIABLE WIND DIRECTION                     <
>                                                          <
>>>>>>>>>>>>>>>>>>>>>>>>>>>> KEY <<<<<<<<<<<<<<<<<<<<<<<<<<<




USA.gov is the U.S. government's official web portal to all federal, state and local government web resources and services.